GSAT0215 (GALILEO 19) (43055 NORAD) Tracking and Keplerian Element Data

This shows tracking and keplerian element data for the satellite.

Feedback or suggestion? Click here.




ElementValue
Catalog43055
NameGSAT0215 (GALILEO 19)
Epoch Orbit2356
Epoch Day268.28724573
Epoch Year2021
RAAN269.0223
Inclination55.9254
Eccentricity0.0004383
Argument of Perigee272.2081
Mean Anonmoly87.7405
Mean Motion1.70474118
Decay Rate1.4E-07
L11 43055U 17079A 21268.28724573 .00000014 00000-0 00000-0 0 9993
L22 43055 55.9254 269.0223 0004383 272.2081 87.7405 1.70474118 23563

Live tracking and technical data element details for GSAT0215 (GALILEO 19) (NORAD 43055). GSAT0215 (GALILEO 19) can be tracked NOW for your location showing map with azimuth and elevation plus other details from your city location.

Track the satellite on the map from your city or location and see movement details for azimuth, elevation, latitude, longitude, range, height, and movement on the map or in text.







IsCatalogInMostPopularTable: catalog: 43055, numindb: 678
Update: records affected: 1



GetName: 43055 GSAT0215 (GALILEO 19)

Hit Count: updated at: Mon, 27 Sep 2021 00:04:14 GMT